Find Starlink 32441

NORAD ID: 61668 Int'l Des: 2024-193 Owner: SPXS Country: US Constellation: starlink operational
LEOCIRCULAR

現在のビュー

3D地球を読み込み中...

About Starlink 32441

Starlink 32441 (NORAD 61668) is a starlink constellation satellite (v2 mini) launched Oct 26, 2024 by SPXS of US. It operates in LEO, CIRCULAR orbit with a mass of 730.00 kg.

次回通過

Passes for default location (London). Set your location on the main map for personalized predictions.

高度履歴

Loading altitude history...

軌道要素

1 61668U 24193H 26264.02229321 .00000840 00000-0 36010-4 0 9993
2 61668 53.1605 262.9495 0001283 85.1278 274.9871 15.34391539106447
Epoch: Sep 21, 2026 • Age: 14 hours

現在のステータス

高度 462.6 km
遠地点 / 近地点 N/A
速度 7.64 km/s
衛星直下点 15.98°N, 51.65°E
打ち上げ日 Oct 26, 2024
運用期間 1.9 years
タイプ internet

技術仕様

分類 Payload
質量 730.00 kg
乾燥質量 700.00 kg
長さ 0.30 m
スパン 29.00 m
形状 ? Box + pan
製造者 SPXS
バスタイプ Starlink V2M
フェーズステータス In Orbit
所有者/国 SPXS/US

Most Searched